TimeCST,TemperatureF,Dew PointF,Humidity,Sea Level PressureIn,VisibilityMPH,Wind Direction,Wind SpeedMPH,Gust SpeedMPH,PrecipitationIn,Events,Conditions,WindDirDegrees,DateUTC
12:56 AM,32.9,29.1,86,29.84,9.0,ENE,19.6,-,N/A,,Scattered Clouds,60,2013-02-26 06:56:00
1:56 AM,32.9,29.1,86,29.78,9.0,ENE,20.7,27.6,N/A,,Mostly Cloudy,60,2013-02-26 07:56:00
2:56 AM,32.9,29.1,86,29.71,9.0,ENE,27.6,33.4,N/A,,Scattered Clouds,60,2013-02-26 08:56:00
3:56 AM,32.9,28.0,82,29.67,9.0,ENE,26.5,41.4,0.00,,Overcast,60,2013-02-26 09:56:00
4:22 AM,33.8,28.4,81,29.63,4.0,ENE,24.2,31.1,0.00,Rain,Light Freezing Rain,70,2013-02-26 10:22:00
4:26 AM,33.8,28.4,81,29.64,3.0,ENE,25.3,31.1,0.00,Rain,Light Freezing Rain,70,2013-02-26 10:26:00
4:56 AM,32.9,29.1,86,29.69,6.0,East,23.0,27.6,0.01,Rain,Light Rain,80,2013-02-26 10:56:00
5:06 AM,33.8,28.4,81,29.65,7.0,East,23.0,29.9,0.00,Rain,Light Rain,80,2013-02-26 11:06:00
5:20 AM,32.0,28.4,87,29.62,2.5,ENE,28.8,-,0.00,Snow,Light Snow,70,2013-02-26 11:20:00
5:24 AM,32.0,28.4,87,29.62,1.2,ENE,28.8,33.4,0.00,Snow,Light Snow,70,2013-02-26 11:24:00
5:30 AM,32.0,30.2,93,29.61,0.8,ENE,29.9,35.7,0.00,Snow,Light Snow,70,2013-02-26 11:30:00
5:36 AM,30.2,30.2,100,29.60,0.5,ENE,29.9,35.7,0.00,Fog-Snow,Light Snow,60,2013-02-26 11:36:00
5:44 AM,30.2,30.2,100,29.57,1.0,ENE,33.4,40.3,0.00,Snow,Light Snow,60,2013-02-26 11:44:00
5:48 AM,30.2,30.2,100,29.57,1.5,ENE,31.1,40.3,0.00,Snow,Light Snow,60,2013-02-26 11:48:00
5:56 AM,32.0,30.0,92,29.60,2.0,ENE,33.4,39.1,0.02,Rain-Snow,Light Rain,60,2013-02-26 11:56:00
6:27 AM,32.0,30.2,93,29.55,2.0,ENE,27.6,34.5,0.08,Rain-Snow,Light Rain,60,2013-02-26 12:27:00
6:35 AM,32.0,30.2,93,29.55,1.8,ENE,24.2,32.2,0.11,Rain-Snow,Light Rain,70,2013-02-26 12:35:00
6:56 AM,32.0,31.1,96,29.59,1.8,ENE,18.4,27.6,0.23,Rain-Snow,Light Rain,60,2013-02-26 12:56:00
7:56 AM,32.0,31.1,96,29.57,2.0,ENE,12.7,-,0.15,Rain,Light Rain,70,2013-02-26 13:56:00
8:17 AM,32.0,30.2,93,29.53,1.2,ENE,15.0,-,0.02,Rain,Light Rain,70,2013-02-26 14:17:00
8:56 AM,32.0,31.1,96,29.56,1.2,ENE,13.8,-,0.11,Rain,Light Rain,70,2013-02-26 14:56:00
9:56 AM,32.0,31.1,96,29.54,3.0,ENE,11.5,-,0.06,Snow,Light Snow,70,2013-02-26 15:56:00
10:56 AM,32.0,31.1,96,29.52,1.5,ENE,11.5,-,0.02,,Overcast,70,2013-02-26 16:56:00
11:19 AM,32.0,32.0,100,29.47,1.5,ENE,10.4,-,0.01,Snow,Light Snow,70,2013-02-26 17:19:00
11:56 AM,32.0,32.0,100,29.50,1.0,ENE,10.4,-,0.03,Rain-Snow,Light Rain,60,2013-02-26 17:56:00
12:56 PM,32.0,32.0,100,29.49,1.2,ENE,6.9,-,0.03,Rain-Snow,Light Rain,60,2013-02-26 18:56:00
1:56 PM,32.0,32.0,100,29.48,0.5,NE,8.1,-,0.01,Snow,Light Snow,50,2013-02-26 19:56:00
2:06 PM,32.0,32.0,100,29.43,0.2,NE,8.1,-,0.00,Fog-Snow,Snow,50,2013-02-26 20:06:00
2:28 PM,32.0,32.0,100,29.43,0.2,NE,8.1,-,0.00,Fog-Snow,Snow,50,2013-02-26 20:28:00
2:56 PM,32.0,32.0,100,29.47,0.2,NE,8.1,-,0.00,Fog-Snow,Light Snow,40,2013-02-26 20:56:00
3:56 PM,32.0,32.0,100,29.50,0.8,NE,8.1,-,0.00,,Overcast,40,2013-02-26 21:56:00
4:10 PM,32.0,32.0,100,29.45,-9999.0,NE,8.1,-,0.00,Snow,Light Snow,50,2013-02-26 22:10:00
4:12 PM,32.0,32.0,100,29.46,1.5,NE,8.1,-,0.01,,Overcast,50,2013-02-26 22:12:00
4:56 PM,32.0,32.0,100,29.51,1.0,NE,8.1,-,0.02,Snow,Light Snow,40,2013-02-26 22:56:00
5:56 PM,32.0,32.0,100,29.52,2.0,NE,8.1,-,0.02,Snow,Light Snow,40,2013-02-26 23:56:00
6:56 PM,32.0,32.0,100,29.54,4.0,NNE,9.2,-,0.01,Snow,Light Snow,30,2013-02-27 00:56:00
7:56 PM,32.0,32.0,100,29.53,8.0,NNE,8.1,-,0.01,,Overcast,30,2013-02-27 01:56:00
8:56 PM,32.0,32.0,100,29.56,5.0,North,6.9,-,0.01,,Overcast,10,2013-02-27 02:56:00
9:49 PM,32.0,32.0,100,29.53,2.5,North,5.8,-,0.00,,Overcast,350,2013-02-27 03:49:00
9:56 PM,32.0,32.0,100,29.57,2.5,North,4.6,-,0.00,,Overcast,350,2013-02-27 03:56:00
10:07 PM,32.0,32.0,100,29.52,1.8,North,4.6,-,0.01,,Overcast,350,2013-02-27 04:07:00
10:33 PM,32.0,32.0,100,29.53,1.5,NNW,4.6,-,0.01,,Overcast,340,2013-02-27 04:33:00
10:45 PM,32.0,32.0,100,29.53,1.2,NNW,4.6,-,0.01,,Overcast,340,2013-02-27 04:45:00
10:56 PM,32.0,32.0,100,29.58,1.2,NNW,4.6,-,0.01,,Overcast,340,2013-02-27 04:56:00
11:10 PM,32.0,32.0,100,29.54,1.5,NNW,4.6,-,0.01,,Overcast,330,2013-02-27 05:10:00
11:56 PM,32.0,32.0,100,29.57,1.8,NNW,5.8,-,0.02,,Overcast,340,2013-02-27 05:56:00